Location: Melbourne
(37.8666°S, 145.1333°E)
Time: 00:20:53
(UTC+11:00)

Amateur Radio Satellites - All Passes

Search period start: 24 January 2017 23:50
Search period end: 25 January 2017 23:50
Location: Melbourne, 37.8666°S, 145.1333°E

Satellite Date Start Highest point End Downlink Frequencies (MHz)
Time Altitude Azimuth
DUCHIFAT 1 24 Jan 23:53:37 23:57:37 39° 108° (ESE) 00:01:40 145.980
NANOSAT C BR1 25 Jan 00:01:14 00:05:24 53° 106° (ESE) 00:09:39 145.865
ESTCUBE 1 25 Jan 00:01:40 00:05:22 24° 85° (E) 00:09:01 437.505/2401.250
BUGSAT 1 25 Jan 00:11:34 00:14:52 22° 112° (ESE) 00:18:13 437.445
BY70-1 25 Jan 00:26:52 00:29:06 72° 257° (WSW) 00:31:29 436.1900
CUBEBUG 1 25 Jan 00:29:44 00:33:37 28° 84° (E) 00:37:27 437.445
AO-85 25 Jan 00:45:25 00:47:53 15° 74° (ENE) 00:50:27 145.980
Gurwin Techsat 1B 25 Jan 00:53:36 00:54:46 11° 121° (ESE) 00:55:55 435.225
Cosmos 2491 25 Jan 00:53:54 01:01:13 28° 110° (ESE) 01:08:25 435.465 / 435.565
QB50P1 25 Jan 00:56:42 01:00:32 31° 277° (W) 01:04:27 145.935-145.965
AISAT 25 Jan 00:57:19 01:01:30 35° 82° (E) 01:05:38 437.250
POLYITAN 1 25 Jan 01:02:28 01:06:10 27° 276° (W) 01:09:54 437.675
QB50P2 25 Jan 01:04:04 01:07:36 24° 275° (W) 01:11:11 145.880/145.840
YUBILEINY 25 Jan 01:04:25 01:04:46 10° 106° (ESE) 01:05:06 435.215
50 SAT 25 Jan 01:05:11 01:08:18 27° 83° (E) 01:11:23 437.505
POPSAT HIP 1 25 Jan 01:25:26 01:28:08 16° 273° (W) 01:30:52 437.405
SPROUT 25 Jan 01:26:48 01:31:06 55° 80° (E) 01:35:20 437.525
VELOX 1 25 Jan 01:30:10 01:34:43 80° 78° (ENE) 01:39:13 145.980
DUCHIFAT 1 25 Jan 01:30:44 01:33:25 16° 273° (W) 01:36:08 145.980
JAS-2 25 Jan 01:31:26 01:34:57 14° 269° (W) 01:38:23 435.910
ESTCUBE 1 25 Jan 01:38:09 01:42:07 30° 250° (WSW) 01:46:03 437.505/2401.250
UKube-1 25 Jan 01:38:46 01:42:43 31° 83° (E) 01:46:37 .
NANOSAT C BR1 25 Jan 01:39:47 01:41:25 12° 271° (W) 01:43:03 145.865
Oscar 19 25 Jan 01:39:58 01:44:59 55° 108° (ESE) 01:50:03 437.125/150
AIST 1 25 Jan 01:43:53 01:46:55 19° 93° (E) 01:50:00
BUGSAT 1 25 Jan 01:46:22 01:50:02 28° 276° (W) 01:53:47 437.445
DX 1 25 Jan 01:47:59 01:52:24 57° 79° (E) 01:56:45 434.975-435.025
AO-7 25 Jan 02:01:39 02:06:18 16° 130° (SE) 02:10:56 29.400- 29.500
CUBEBUG 1 25 Jan 02:06:05 02:09:45 25° 249° (WSW) 02:13:23 437.445
AO-85 25 Jan 02:23:17 02:27:43 55° 236° (SW) 02:32:34 145.980
JUGNU 25 Jan 02:24:10 02:26:44 13° 4° (N) 02:29:17 437.505
Gurwin Techsat 1B 25 Jan 02:28:28 02:33:49 85° 101° (E) 02:39:15 435.225
ITAMSAT 1 25 Jan 02:33:59 02:37:41 20° 116° (ESE) 02:41:24 435.822/435.867
AISAT 25 Jan 02:34:21 02:37:41 20° 247° (WSW) 02:40:59 437.250
50 SAT 25 Jan 02:39:01 02:41:15 16° 248° (WSW) 02:43:29 437.505
TISAT 1 25 Jan 02:39:22 02:43:33 47° 80° (E) 02:47:38 437.305
Cosmos 2491 25 Jan 02:49:55 02:58:34 60° 271° (W) 03:07:04 435.465 / 435.565
YUBILEINY 25 Jan 02:51:08 02:59:45 68° 88° (E) 03:08:25 435.215
CUSAT 1 25 Jan 03:04:10 03:07:01 89° 99° (E) 03:10:25 437.405
SPROUT 25 Jan 03:04:32 03:06:30 13° 244° (WSW) 03:08:27 437.525
UKube-1 25 Jan 03:15:12 03:18:31 21° 247° (WSW) 03:21:50 .
Cosmos 2504 25 Jan 03:15:56 03:23:01 51° 90° (E) 03:30:39 435.465 / 435.565
ITUPSAT 1 25 Jan 03:17:30 03:21:18 23° 85° (E) 03:25:04 437.325
AIST 1 25 Jan 03:20:24 03:24:15 31° 257° (WSW) 03:28:09
Oscar 19 25 Jan 03:21:34 03:24:37 16° 272° (W) 03:27:43 437.125/150
DX 1 25 Jan 03:26:03 03:28:03 13° 244° (WSW) 03:30:03 434.975-435.025
SO-50 25 Jan 03:34:40 03:37:29 15° 137° (SE) 03:40:17 436.795
BEESAT 2 25 Jan 03:37:41 03:38:09 10° 72° (ENE) 03:38:38 435.950
BEESAT 25 Jan 03:48:28 03:53:09 50° 80° (E) 03:57:47 436.000
AO-7 25 Jan 03:49:24 03:57:41 76° 110° (ESE) 04:06:02 29.400- 29.500
SWISSCUBE 25 Jan 03:50:32 03:55:18 60° 79° (E) 04:00:01 437.505
SRMSAT 25 Jan 04:03:00 04:04:28 11° 9° (N) 04:05:56 437.500
ITAMSAT 1 25 Jan 04:11:37 04:16:43 50° 280° (W) 04:21:53 435.822/435.867
JUGNU 25 Jan 04:12:45 04:14:52 12° 353° (N) 04:16:59 437.505
O/OREOS (USA 219) 25 Jan 04:12:55 04:17:19 41° 116° (ESE) 04:21:37 437.305
Gurwin Techsat 1B 25 Jan 04:13:52 04:14:23 10° 269° (W) 04:14:55 435.225
TISAT 1 25 Jan 04:16:26 04:18:43 14° 245° (WSW) 04:20:59 437.305
BEESAT 3 25 Jan 04:16:51 04:20:47 81° 61° (ENE) 04:24:43 437.485
BRITE-PL 25 Jan 04:24:52 04:27:03 14° 116° (ESE) 04:29:15 437.365/2234.400
DANDE 25 Jan 04:40:21 04:42:18 18° 272° (W) 04:44:14 436.750
MOZHAYETS 4 25 Jan 04:42:00 04:46:35 57° 80° (E) 04:51:05
KKS-1 25 Jan 04:50:07 04:53:29 20° 86° (E) 04:56:49 437.445
YUBILEINY 25 Jan 04:50:29 04:57:14 24° 248° (WSW) 05:04:03 435.215
ITUPSAT 1 25 Jan 04:54:49 04:59:10 34° 250° (WSW) 05:03:28 437.325
HORYU 2 25 Jan 04:56:34 04:59:17 16° 115° (ESE) 05:02:01 437.375
Cosmos 2504 25 Jan 05:10:30 05:16:45 28° 250° (WSW) 05:23:26 435.465 / 435.565
BEESAT 2 25 Jan 05:11:29 05:15:24 59° 237° (WSW) 05:19:20 435.950
SO-50 25 Jan 05:13:40 05:18:31 78° 300° (WNW) 05:23:20 436.795
BEESAT 25 Jan 05:27:27 05:30:29 17° 244° (WSW) 05:33:30 436.000
M-CUBED/EXP-1 PRIME 25 Jan 05:29:12 05:33:53 57° 75° (ENE) 05:38:29 437.505
SWISSCUBE 25 Jan 05:30:01 05:32:33 14° 243° (WSW) 05:35:04 437.505
STARS 25 Jan 05:30:29 05:34:11 25° 84° (E) 05:37:49 437.465
CUBESAT XI-V 25 Jan 05:39:52 05:44:11 35° 83° (E) 05:48:27 437.345
GOMX 1 25 Jan 05:41:31 05:45:31 38° 109° (ESE) 05:49:48 467.674
NOAA 18 25 Jan 05:43:40 05:45:31 12° 122° (ESE) 05:47:21 137.9125
AO-7 25 Jan 05:45:15 05:51:08 21° 273° (W) 05:57:04 29.400- 29.500
SRMSAT 25 Jan 05:50:10 05:52:45 13° 358° (N) 05:55:20 437.500
O/OREOS (USA 219) 25 Jan 05:53:19 05:56:21 17° 280° (W) 05:59:20 437.305
CUTE-I 25 Jan 05:55:01 05:59:28 26° 114° (ESE) 06:03:56 437.470
DOVE 4 25 Jan 05:58:02 06:01:42 24° 113° (ESE) 06:05:32 437.250
BEESAT 3 25 Jan 05:58:12 05:58:55 10° 223° (SW) 05:59:37 437.485
BRITE-PL 25 Jan 06:01:06 06:05:06 44° 278° (W) 06:09:15 437.365/2234.400
AUBIESAT-1 25 Jan 06:02:02 06:06:44 79° 252° (WSW) 06:11:20 437.475
AIST 2 25 Jan 06:15:52 06:15:59 10° 73° (ENE) 06:16:07 435.215
MOZHAYETS 4 25 Jan 06:20:56 06:23:12 14° 244° (WSW) 06:25:28
KKS-1 25 Jan 06:25:58 06:30:06 35° 251° (WSW) 06:34:11 437.445
HO-68 25 Jan 06:28:08 06:32:18 17° 124° (SE) 06:36:28 435.675
LilacSat-2 25 Jan 06:29:44 06:33:33 53° 105° (ESE) 06:37:24 437.200
HORYU 2 25 Jan 06:31:01 06:35:23 48° 280° (W) 06:39:49 437.375
NOAA 15 25 Jan 06:31:23 06:36:34 59° 108° (ESE) 06:41:47 137.62
Cubesat XI-IV 25 Jan 06:38:35 06:43:56 66° 106° (ESE) 06:49:21 437.490
CINEMA 3 25 Jan 06:53:48 06:57:35 23° 113° (ESE) 07:01:28 145.822/145.860
CUTE 1.7 + AOD 2 25 Jan 06:58:27 06:59:45 11° 116° (ESE) 07:01:04 437.475
M-CUBED/EXP-1 PRIME 25 Jan 07:04:57 07:07:50 16° 240° (WSW) 07:10:42 437.505
STARS 25 Jan 07:06:37 07:10:27 28° 249° (WSW) 07:14:15 437.465
Cosmos 2499 25 Jan 07:17:02 07:23:06 27° 98° (E) 07:29:34 435.465 / 435.565
CUBESAT XI-V 25 Jan 07:17:44 07:21:19 22° 248° (WSW) 07:24:53 437.345
NOAA 18 25 Jan 07:19:44 07:25:16 87° 105° (ESE) 07:30:54 137.9125
GOMX 1 25 Jan 07:20:58 07:23:50 17° 271° (W) 07:26:48 467.674
CUBEBUG 2 25 Jan 07:21:23 07:22:06 10° 118° (ESE) 07:22:50 437.445
CANX-2 25 Jan 07:26:04 07:29:41 27° 110° (ESE) 07:33:19 2200.000
SEEDS 25 Jan 07:28:28 07:31:07 16° 113° (ESE) 07:33:46 437.485
CUTE-I 25 Jan 07:34:18 07:39:17 38° 278° (W) 07:44:19 437.470
DOVE 4 25 Jan 07:35:07 07:39:10 32° 275° (W) 07:43:30 437.250
STRAND 1 25 Jan 07:38:34 07:41:59 18° 87° (E) 07:45:21 437.568
GONETS M04 25 Jan 07:40:28 07:48:04 34° 95° (E) 07:55:39
UWE-3 25 Jan 07:40:39 07:40:49 10° 118° (ESE) 07:40:58 435.000/436.395/437.385
AIST 2 25 Jan 07:49:45 07:53:54 65° 237° (WSW) 07:58:01 435.215
HO-68 25 Jan 08:11:49 08:19:00 89° 106° (ESE) 08:26:16 435.675
NOAA 15 25 Jan 08:13:36 08:16:41 16° 272° (W) 08:19:47 137.62
Oscar 11 25 Jan 08:15:27 08:16:32 11° 117° (ESE) 08:17:38 145.826/435.025
Cubesat XI-IV 25 Jan 08:21:33 08:24:26 14° 271° (W) 08:27:20 437.490
CINEMA 3 25 Jan 08:29:59 08:34:24 37° 276° (W) 08:39:03 145.822/145.860
CUTE 1.7 + AOD 2 25 Jan 08:30:49 08:35:02 61° 281° (W) 08:39:17 437.475
CUBEBUG 2 25 Jan 08:53:10 08:57:57 85° 284° (WNW) 09:02:49 437.445
FUNcube-1 25 Jan 08:54:40 08:58:49 34° 109° (ESE) 09:02:58 145.935
COMPASS 1 25 Jan 08:58:33 09:02:42 68° 280° (W) 09:06:54 437.405
CANX-2 25 Jan 09:02:05 09:05:28 23° 275° (W) 09:08:54 2200.000
SEEDS 25 Jan 09:02:32 09:06:28 38° 278° (W) 09:10:27 437.485
AAUSAT CUBESAT 2 25 Jan 09:04:58 09:09:07 76° 282° (WNW) 09:13:19 437.432
NOAA 18 25 Jan 09:05:29 09:06:35 11° 269° (W) 09:07:41 137.9125
Cosmos 2499 25 Jan 09:08:14 09:15:35 55° 258° (WSW) 09:23:41 435.465 / 435.565
UWE-3 25 Jan 09:11:47 09:16:31 84° 282° (WNW) 09:21:17 435.000/436.395/437.385
STRAND 1 25 Jan 09:16:24 09:21:24 50° 252° (WSW) 09:26:20 437.568
AO-85 25 Jan 09:17:09 09:19:59 14° 140° (SE) 09:22:49 145.980
ZACube-1 25 Jan 09:20:00 09:24:36 72° 104° (ESE) 09:29:13 437.345
ISS 25 Jan 09:32:25 09:35:44 77° 43° (NE) 09:39:06 145.825
GONETS M04 25 Jan 09:35:59 09:44:29 50° 257° (WSW) 09:53:02
DELFI C3 25 Jan 09:41:10 09:44:38 30° 109° (ESE) 09:48:08 145.870
Oscar 11 25 Jan 09:47:44 09:52:04 67° 281° (W) 09:56:27 145.826/435.025
HO-68 25 Jan 10:03:55 10:07:31 14° 270° (W) 10:11:10 435.675
PRISM 25 Jan 10:23:54 10:27:58 45° 80° (E) 10:32:00 437.425
HUMSAT D 25 Jan 10:25:13 10:29:25 56° 105° (ESE) 10:33:38 437.325/437.525
FUNcube-1 25 Jan 10:31:34 10:35:04 21° 274° (W) 10:38:35 145.935
UNISAT 6 25 Jan 10:39:10 10:42:38 21° 86° (E) 10:46:00 437.425
RS-15 25 Jan 10:39:15 10:48:33 31° 75° (ENE) 10:57:35 29.354- 29.394
TIGRISAT 25 Jan 10:50:43 10:54:33 27° 85° (E) 10:58:16 435.000
AO-85 25 Jan 10:55:54 11:01:20 79° 121° (ESE) 11:06:40 145.980
JAS-2 25 Jan 10:58:13 10:59:04 10° 93° (E) 10:59:54 435.910
ESTCUBE 1 25 Jan 10:59:58 11:03:04 19° 114° (ESE) 11:06:12 437.505/2401.250
ANTELSAT 25 Jan 11:06:50 11:11:10 43° 82° (E) 11:15:20 437.575/2403.000
ISS 25 Jan 11:10:16 11:12:34 17° 204° (SSW) 11:14:53 145.825
DELFI C3 25 Jan 11:16:46 11:19:28 18° 274° (W) 11:22:11 145.870
CUBEBUG 1 25 Jan 11:24:28 11:27:33 19° 113° (ESE) 11:30:42 437.445
PCSat 25 Jan 11:34:07 11:37:27 17° 76° (ENE) 11:40:48 145.827
AISAT 25 Jan 11:53:00 11:56:41 26° 112° (ESE) 12:00:23 437.250
PRISM 25 Jan 12:00:36 12:02:50 14° 245° (WSW) 12:05:04 437.425
HUMSAT D 25 Jan 12:04:08 12:05:19 11° 271° (W) 12:06:31 437.325/437.525
BY70-1 25 Jan 12:10:28 12:11:52 15° 278° (W) 12:13:15 436.1900
UNISAT 6 25 Jan 12:15:21 12:19:22 31° 250° (WSW) 12:23:15 437.425
SPROUT 25 Jan 12:18:20 12:22:11 33° 109° (ESE) 12:26:07 437.525
VELOX 1 25 Jan 12:25:19 12:29:38 55° 106° (ESE) 12:34:02 145.980
TIGRISAT 25 Jan 12:27:24 12:31:07 25° 248° (WSW) 12:34:45 435.000
PHONESAT 2.4 25 Jan 12:31:37 12:33:38 29° 25° (NNE) 12:35:40 2401.200-2431.200
UKube-1 25 Jan 12:31:49 12:35:10 22° 113° (ESE) 12:38:33 .
ESTCUBE 1 25 Jan 12:35:19 12:39:33 39° 278° (W) 12:43:50 437.505/2401.250
BEESAT 3 25 Jan 12:35:46 12:39:02 25° 128° (SE) 12:42:15 437.485
AO-85 25 Jan 12:38:42 12:41:07 13° 285° (WNW) 12:43:31 145.980
JAS-2 25 Jan 12:39:22 12:44:59 77° 255° (WSW) 12:50:11 435.910
DX 1 25 Jan 12:41:36 12:45:39 39° 109° (ESE) 12:49:46 434.975-435.025
QB50P1 25 Jan 12:42:42 12:46:52 46° 81° (E) 12:50:57 145.935-145.965
ANTELSAT 25 Jan 12:44:37 12:47:28 17° 245° (WSW) 12:50:14 437.575/2403.000
POLYITAN 1 25 Jan 12:48:24 12:52:39 54° 80° (E) 12:56:49 437.675
RS-15 25 Jan 12:48:46 13:00:01 69° 236° (SW) 13:10:59 29.354- 29.394
QB50P2 25 Jan 12:49:48 12:54:05 61° 80° (E) 12:58:17 145.880/145.840
CUBEBUG 1 25 Jan 12:59:33 13:03:33 35° 277° (W) 13:07:37 437.445
YUBILEINY 25 Jan 13:04:03 13:11:36 30° 109° (ESE) 13:19:04 435.215
POPSAT HIP 1 25 Jan 13:10:01 13:14:22 85° 261° (W) 13:18:37 437.405
50 SAT 25 Jan 13:10:26 13:13:51 49° 279° (W) 13:17:19 437.505
Cosmos 2504 25 Jan 13:10:55 13:16:46 19° 115° (ESE) 13:22:38 435.465 / 435.565
DUCHIFAT 1 25 Jan 13:14:37 13:18:56 88° 253° (WSW) 13:23:10 145.980
PCSat 25 Jan 13:14:56 13:20:17 60° 240° (WSW) 13:25:41 145.827
NANOSAT C BR1 25 Jan 13:22:49 13:27:06 64° 255° (WSW) 13:31:17 145.865
AIST 1 25 Jan 13:28:34 13:32:57 51° 100° (E) 13:37:16
TISAT 1 25 Jan 13:29:11 13:32:50 28° 110° (ESE) 13:36:32 437.305
AISAT 25 Jan 13:29:17 13:33:01 26° 276° (W) 13:36:48 437.250
BUGSAT 1 25 Jan 13:29:21 13:33:30 45° 81° (E) 13:37:31 437.445
BEESAT 2 25 Jan 13:30:53 13:34:38 42° 124° (SE) 13:38:18 435.950
Cosmos 2491 25 Jan 13:52:53 14:00:31 34° 95° (E) 14:08:10 435.465 / 435.565
Oscar 19 25 Jan 13:53:59 13:58:04 23° 86° (E) 14:02:07 437.125/150
SPROUT 25 Jan 13:55:00 13:58:09 20° 274° (W) 14:01:21 437.525
VELOX 1 25 Jan 14:04:39 14:06:25 12° 271° (W) 14:08:10 145.980
PHONESAT 2.4 25 Jan 14:05:05 14:07:17 50° 190° (S) 14:09:29 2401.200-2431.200
UKube-1 25 Jan 14:07:12 14:11:00 30° 277° (W) 14:14:52 .
BEESAT 3 25 Jan 14:13:25 14:16:32 23° 292° (WNW) 14:19:36 437.485
DX 1 25 Jan 14:19:08 14:21:58 17° 274° (W) 14:24:50 434.975-435.025
QB50P1 25 Jan 14:19:48 14:22:12 15° 245° (WSW) 14:24:34 145.935-145.965
ITUPSAT 1 25 Jan 14:22:35 14:26:21 23° 113° (ESE) 14:30:08 437.325
POLYITAN 1 25 Jan 14:26:03 14:27:55 13° 244° (WSW) 14:29:47 437.675
ISS 25 Jan 14:26:41 14:28:01 12° 163° (SSE) 14:29:21 145.825
QB50P2 25 Jan 14:27:54 14:29:18 11° 243° (WSW) 14:30:42 145.880/145.840
Gurwin Techsat 1B 25 Jan 14:46:48 14:51:50 39° 82° (E) 14:56:48 435.225
BEESAT 25 Jan 14:52:50 14:57:26 47° 108° (ESE) 15:02:05 436.000
SWISSCUBE 25 Jan 14:54:54 14:59:36 56° 107° (ESE) 15:04:21 437.505
YUBILEINY 25 Jan 15:00:15 15:08:45 55° 270° (W) 15:17:14 435.215
Cosmos 2504 25 Jan 15:02:21 15:11:15 89° 271° (W) 15:20:11 435.465 / 435.565
PCSat 25 Jan 15:04:34 15:04:50 10° 220° (SW) 15:05:05 145.827
TISAT 1 25 Jan 15:05:04 15:08:25 22° 275° (W) 15:11:49 437.305
BUGSAT 1 25 Jan 15:06:05 15:08:25 15° 245° (WSW) 15:10:43 437.445
RS-15 25 Jan 15:06:41 15:14:51 23° 209° (SSW) 15:22:57 29.354- 29.394
AIST 1 25 Jan 15:08:14 15:09:59 12° 264° (W) 15:11:45
BEESAT 2 25 Jan 15:09:59 15:12:01 14° 289° (WNW) 15:14:02 435.950
Oscar 19 25 Jan 15:32:37 15:37:29 40° 250° (WSW) 15:42:19 437.125/150
PHONESAT 2.4 25 Jan 15:39:00 15:41:09 42° 174° (S) 15:43:19 2401.200-2431.200
MOZHAYETS 4 25 Jan 15:41:49 15:46:13 44° 108° (ESE) 15:50:39
KKS-1 25 Jan 15:47:05 15:49:47 16° 115° (ESE) 15:52:32 437.445
Cosmos 2491 25 Jan 15:48:28 15:56:58 50° 257° (WSW) 16:05:33 435.465 / 435.565
AO-7 25 Jan 15:53:56 16:00:47 27° 84° (E) 16:07:35 29.400- 29.500
ITUPSAT 1 25 Jan 15:59:31 16:03:57 35° 278° (W) 16:08:24 437.325
DANDE 25 Jan 16:00:49 16:06:52 34° 85° (E) 16:11:45 436.750
ISS 25 Jan 16:01:54 16:05:11 46° 145° (SE) 16:08:26 145.825
CUSAT 1 25 Jan 16:03:44 16:08:41 70° 261° (W) 16:12:30 437.405
AIST 2 25 Jan 16:12:45 16:16:39 44° 125° (SE) 16:20:32 435.215
M-CUBED/EXP-1 PRIME 25 Jan 16:13:48 16:17:21 46° 112° (ESE) 16:21:13 437.505
STARS 25 Jan 16:25:47 16:28:52 19° 114° (ESE) 16:31:59 437.465
ITAMSAT 1 25 Jan 16:26:08 16:31:24 67° 78° (ENE) 16:36:34 435.822/435.867
Gurwin Techsat 1B 25 Jan 16:27:13 16:31:32 25° 246° (WSW) 16:35:48 435.225
BEESAT 25 Jan 16:32:22 16:35:25 17° 273° (W) 16:38:31 436.000
SWISSCUBE 25 Jan 16:35:12 16:37:42 14° 272° (W) 16:40:13 437.505
CUBESAT XI-V 25 Jan 16:41:31 16:45:27 28° 111° (ESE) 16:49:25 437.345
AUBIESAT-1 25 Jan 16:45:57 16:49:41 86° 287° (WNW) 16:53:47 437.475
Cosmos 2504 25 Jan 16:58:16 17:03:22 17° 258° (WSW) 17:08:31 435.465 / 435.565
PHONESAT 2.4 25 Jan 17:12:42 17:14:53 45° 339° (NNW) 17:17:01 2401.200-2431.200
MOZHAYETS 4 25 Jan 17:20:35 17:23:33 17° 273° (W) 17:26:32
KKS-1 25 Jan 17:21:37 17:25:55 47° 280° (W) 17:30:19 437.445
RS-15 25 Jan 17:27:16 17:33:13 15° 171° (S) 17:39:10 29.354- 29.394
ISS 25 Jan 17:39:11 17:41:24 17° 309° (NW) 17:43:36 145.825
DANDE 25 Jan 17:43:31 17:49:28 32° 258° (WSW) 17:54:15 436.750
GOMX 1 25 Jan 17:45:12 17:48:42 17° 89° (E) 17:52:13 467.674
AO-7 25 Jan 17:45:44 17:53:56 62° 247° (WSW) 18:02:08 29.400- 29.500
M-CUBED/EXP-1 PRIME 25 Jan 17:51:07 17:52:10 11° 275° (W) 17:53:16 437.505
AIST 2 25 Jan 17:52:30 17:54:44 14° 289° (WNW) 17:56:56 435.215
GONETS M04 25 Jan 17:54:20 17:58:32 14° 119° (ESE) 18:02:41
STARS 25 Jan 18:00:45 18:04:54 38° 278° (W) 18:09:07 437.465
BRITE-PL 25 Jan 18:05:52 18:11:05 63° 79° (E) 18:16:35 437.365/2234.400
ITAMSAT 1 25 Jan 18:07:22 18:10:14 15° 242° (WSW) 18:13:05 435.822/435.867
CUTE-I 25 Jan 18:16:07 18:17:30 11° 91° (E) 18:18:52 437.470
CUBESAT XI-V 25 Jan 18:18:53 18:22:45 26° 275° (W) 18:26:39 437.345
O/OREOS (USA 219) 25 Jan 18:22:52 18:27:27 68° 71° (ENE) 18:32:07 437.305
HORYU 2 25 Jan 18:23:45 18:27:54 35° 82° (E) 18:31:59 437.375
NOAA 15 25 Jan 18:48:53 18:53:15 25° 85° (E) 18:57:35 137.62
STRAND 1 25 Jan 18:52:33 18:56:30 22° 114° (ESE) 19:00:28 437.568
Cubesat XI-IV 25 Jan 18:58:09 19:02:54 30° 84° (E) 19:07:34 437.490
Cosmos 2499 25 Jan 19:00:44 19:09:27 53° 103° (ESE) 19:17:59 435.465 / 435.565
GOMX 1 25 Jan 19:21:43 19:27:02 59° 254° (WSW) 19:32:27 467.674
SO-50 25 Jan 19:26:03 19:30:26 51° 64° (ENE) 19:34:58 436.795
DOVE 4 25 Jan 19:34:38 19:40:03 81° 78° (ENE) 19:45:21 437.250
LilacSat-2 25 Jan 19:38:51 19:42:43 76° 258° (WSW) 19:46:30 437.200
RS-15 25 Jan 19:40:26 19:50:16 36° 138° (SE) 20:00:16 29.354- 29.394
AO-7 25 Jan 19:41:44 19:45:01 13° 227° (SW) 19:48:19 29.400- 29.500
HO-68 25 Jan 19:43:14 19:47:58 18° 88° (E) 19:52:41 435.675
NOAA 18 25 Jan 19:43:52 19:49:13 43° 81° (E) 19:54:28 137.9125
BRITE-PL 25 Jan 19:45:55 19:49:05 16° 245° (WSW) 19:52:20 437.365/2234.400
GONETS M04 25 Jan 19:48:06 19:56:55 77° 98° (E) 20:05:37
CUTE-I 25 Jan 19:52:41 19:58:08 81° 255° (WSW) 20:03:29 437.470
HORYU 2 25 Jan 20:00:54 20:04:10 20° 246° (WSW) 20:07:25 437.375
O/OREOS (USA 219) 25 Jan 20:05:16 20:07:22 13° 234° (SW) 20:09:29 437.305
CUTE 1.7 + AOD 2 25 Jan 20:17:53 20:21:26 25° 85° (E) 20:24:58 437.475
PCSat 25 Jan 20:23:32 20:25:35 12° 138° (SE) 20:27:37 145.827
CINEMA 3 25 Jan 20:26:13 20:31:12 65° 79° (E) 20:35:55 145.822/145.860
NOAA 15 25 Jan 20:28:13 20:33:04 37° 249° (WSW) 20:37:53 137.62
STRAND 1 25 Jan 20:30:28 20:35:21 42° 279° (W) 20:40:19 437.568
Cubesat XI-IV 25 Jan 20:38:08 20:42:53 32° 248° (WSW) 20:47:37 437.490
COMPASS 1 25 Jan 20:43:41 20:46:55 21° 86° (E) 20:50:07 437.405
CUBEBUG 2 25 Jan 20:46:53 20:50:31 23° 86° (E) 20:54:01 437.445
CANX-2 25 Jan 20:47:42 20:51:58 69° 79° (E) 20:56:12 2200.000
SEEDS 25 Jan 20:47:53 20:51:50 37° 82° (E) 20:55:44 437.485
AAUSAT CUBESAT 2 25 Jan 20:49:43 20:52:43 19° 86° (E) 20:55:41 437.432
Cosmos 2499 25 Jan 20:54:29 21:02:09 34° 265° (W) 21:09:44 435.465 / 435.565
UWE-3 25 Jan 21:04:19 21:07:46 22° 86° (E) 21:11:06 435.000/436.395/437.385
SO-50 25 Jan 21:07:56 21:11:13 19° 226° (SW) 21:14:35 436.795
PRISM 25 Jan 21:11:44 21:15:07 25° 111° (ESE) 21:18:33 437.425
ZACube-1 25 Jan 21:11:48 21:14:20 15° 88° (E) 21:16:49 437.345
DOVE 4 25 Jan 21:14:35 21:16:57 13° 242° (WSW) 21:19:19 437.250
NOAA 18 25 Jan 21:25:05 21:29:33 25° 245° (WSW) 21:33:59 137.9125
HO-68 25 Jan 21:29:03 21:36:18 75° 252° (WSW) 21:43:29 435.675
UNISAT 6 25 Jan 21:36:24 21:39:31 18° 114° (ESE) 21:42:39 437.425
CUTE-I 25 Jan 21:36:45 21:37:15 10° 238° (WSW) 21:37:44 437.470
Oscar 11 25 Jan 21:37:12 21:40:49 25° 85° (E) 21:44:23 145.826/435.025
GONETS M04 25 Jan 21:46:53 21:52:39 20° 260° (W) 21:58:24
TIGRISAT 25 Jan 21:47:33 21:51:07 21° 113° (ESE) 21:54:41 435.000
RS-15 25 Jan 21:52:33 22:03:23 69° 295° (WNW) 22:14:37 29.354- 29.394
CUTE 1.7 + AOD 2 25 Jan 21:53:41 21:57:09 24° 250° (WSW) 22:00:35 437.475
ANTELSAT 25 Jan 22:03:24 22:07:36 33° 110° (ESE) 22:11:50 437.575/2403.000
PCSat 25 Jan 22:04:28 22:09:56 74° 119° (ESE) 22:15:21 145.827
CINEMA 3 25 Jan 22:05:11 22:07:38 14° 243° (WSW) 22:10:02 145.822/145.860
COMPASS 1 25 Jan 22:18:49 22:22:25 28° 251° (WSW) 22:26:01 437.405
FUNcube-1 25 Jan 22:20:14 22:24:36 89° 101° (ESE) 22:28:48 145.935
CUBEBUG 2 25 Jan 22:23:11 22:27:06 29° 250° (WSW) 22:30:53 437.445
SEEDS 25 Jan 22:24:26 22:27:12 17° 247° (WSW) 22:29:56 437.485
AAUSAT CUBESAT 2 25 Jan 22:24:29 22:28:13 31° 252° (WSW) 22:31:55 437.432
UWE-3 25 Jan 22:40:22 22:44:13 29° 250° (WSW) 22:47:55 435.000/436.395/437.385
ZACube-1 25 Jan 22:46:44 22:50:49 40° 252° (WSW) 22:54:47 437.345
PRISM 25 Jan 22:47:05 22:50:20 23° 276° (W) 22:53:37 437.425
JAS-2 25 Jan 22:47:31 22:54:34 43° 111° (ESE) 23:01:03 435.910
DELFI C3 25 Jan 22:54:07 22:58:08 64° 79° (E) 23:02:07 145.870
UNISAT 6 25 Jan 23:11:16 23:15:49 46° 279° (W) 23:20:25 437.425
Oscar 11 25 Jan 23:13:15 23:16:51 26° 249° (WSW) 23:20:26 145.826/435.025
HO-68 25 Jan 23:19:31 23:22:47 14° 234° (SW) 23:26:03 435.675
TIGRISAT 25 Jan 23:23:07 23:27:30 37° 278° (W) 23:31:56 435.000
QB50P1 25 Jan 23:33:20 23:37:00 28° 110° (ESE) 23:40:42 145.935-145.965
POLYITAN 1 25 Jan 23:39:03 23:42:54 32° 109° (ESE) 23:46:48 437.675
QB50P2 25 Jan 23:40:23 23:44:20 35° 108° (ESE) 23:48:19 145.880/145.840
ANTELSAT 25 Jan 23:40:29 23:44:17 24° 275° (W) 23:48:08 437.575/2403.000
